Regional Weather Roundup
Issued by NWS Binghamton, NY

Home | Current Version | Previous Version | Text Only | Print | Product List | Glossary On
Versions: 1 2 3 4 5 6 7 8 9 10 11 12 13 14 15 16 17 18 19 20 21 22 23 24 25 26 27 28 29 30 31 32 33 34 35 36 37 38 39 40 41 42 43 44 45 46 47 48 49 50
000
ASUS41 KBGM 050810
RWRBGM
RWRBGM
BINGHAMTON REGIONAL WEATHER ROUNDUP
NATIONAL WEATHER SERVICE BINGHAMTON NY
300 AM EST THU MAR 05 2015

Note: "fair" indicates few or no clouds below 12,000 feet with no
significant weather and/or obstructions to visibility.

* = Station(s) that does not report precipitation, such as rain,
snow, etc, also no thunder or fog.

!NYZ009-015>018-022>025-036-037-044>046-055>057-062-050900
...CENTRAL NEW YORK...

CITY           SKY/WX    TMP DP  RH WIND       PRES   REMARKS
BINGHAMTON     CLOUDY    24  19  81 NW10      29.92F WCI  14
CORTLAND       LGT SNOW  23  19  86 NW8G16    30.01R WCI  14
DANSVILLE      LGT SNOW  17  11  77 N16       30.15R WCI   2
ELMIRA         CLOUDY    28  19  69 N15G22    30.01R WCI  16
ITHACA         LGT SNOW  20  16  84 N17G25    30.03R FOG     WCI   5
MONTICELLO     CLOUDY    30  19  64 NW16      29.89S WCI  19
NORWICH        FLURRIES  23  16  74 NW8       29.99S WCI  14
ONEONTA        LGT SNOW  19  16  86 N8        29.92R WCI   9
PENN YAN       LGT SNOW  18  12  77 NW21G30   30.08R WCI   1
ROME           CLOUDY    21  12  68 NW15      30.04R WCI   8
SIDNEY         LGT SNOW  27  23  86 N12G17    29.97R WCI  16
SYRACUSE       FLURRIES  17  10  74 NW20G25   30.09R WCI   1
$$

!PAZ038>040-043-044-047-048-072-050900
...NORTHEAST PENNSYLVANIA...

CITY           SKY/WX    TMP DP  RH WIND       PRES   REMARKS
HAZLETON       LGT SNOW  32  32 100 NW8       29.91F VSB 3/4 WCI  25
SCRANTON       CLOUDY    33  25  72 NW6       29.92F WCI  28
TOWANDA*       CLOUDY    30  21  69 N13G22    29.99S WCI  20
$$
&&
KEY
WCI = WIND CHILL INDEX
VSB = VISIBILITY
HX  = HEAT INDEX
$$



USA.gov is the U.S. government's official web portal to all federal, state and local government web resources and services.